Location: Bukit Nyuki
(2.5885°N, 113.7476°E)
Time: 14:15:30
(UTC+00:00)

BREEZE-M DEB (TANK) - Pass Details

Date: 18 May 2021
Orbit: 423 x 13239 km, 46.0° (Epoch: 15 June)

Event Time Altitude Azimuth Distance (km) Brightness Sun altitude
Exits shadow 20:49:42 17° 215° (SW) 4,417 6.9 -20.6°
Maximum altitude 20:58:31 68° 136° (SE) 1,118 4.3 -18.5°
Drops below altitude 10° 21:02:34 10° 52° (NE) 2,014 6.8 -17.6°
Sets 21:04:03 0° 49° (NE) 2,672 7.7 -17.2°
